This is the latest recevied weather packets stored in our database for station/object W4JCW. If no packets are shown the sender has not sent any weather packets the latest 10 day(s).
| Time | Temp. | Humidity | Pressure | Rain* | Wind** | Luminosity | Snow |
|---|---|---|---|---|---|---|---|
| 1777502667 | 27.22° C | 58% | 1006.3 hPa | 0 mm | - | 65 W/m² | - |
| 1777502363 | 27.22° C | 58% | 1006.5 hPa | 0 mm | - | 80 W/m² | - |
| 1777502060 | 27.22° C | 57% | 1006.3 hPa | 0 mm | - | 57 W/m² | - |
| 1777501756 | 27.78° C | 57% | 1006.5 hPa | 0 mm | - | 66 W/m² | - |
| 1777501454 | 27.78° C | 56% | 1006.4 hPa | 0 mm | - | 69 W/m² | - |
| 1777501151 | 27.78° C | 56% | 1006.4 hPa | 0 mm | - | 184 W/m² | - |
| 1777500850 | 27.22° C | 57% | 1006.3 hPa | 0 mm | - | 178 W/m² | - |
| 1777500546 | 27.22° C | 57% | 1006.3 hPa | 0 mm | - | 46 W/m² | - |
| 1777500243 | 27.78° C | 55% | 1006.4 hPa | 0 mm | - | 67 W/m² | - |
| 1777499939 | 28.33° C | 54% | 1006.5 hPa | 0 mm | - | 80 W/m² | - |
| 1777499636 | 28.89° C | 53% | 1006.5 hPa | 0 mm | - | 311 W/m² | - |
| 1777499333 | 28.33° C | 54% | 1006.5 hPa | 0 mm | - | 335 W/m² | - |
| 1777499031 | 28.33° C | 54% | 1006.5 hPa | 0 mm | - | 359 W/m² | - |
| 1777498727 | 27.78° C | 55% | 1006.5 hPa | 0 mm | - | 373 W/m² | - |
| 1777498424 | 27.22° C | 56% | 1007 hPa | 0 mm | - | 419 W/m² | - |
| 1777498120 | 27.22° C | 55% | 1007 hPa | 0 mm | - | 238 W/m² | - |
| 1777497818 | 27.78° C | 55% | 1007 hPa | 0 mm | - | 151 W/m² | - |
| 1777497514 | 26.67° C | 57% | 1007.2 hPa | 0 mm | - | 513 W/m² | - |
| 1777497210 | 27.22° C | 55% | 1007.2 hPa | 0 mm | - | 94 W/m² | - |
| 1777496907 | 27.78° C | 54% | 1007.1 hPa | 0 mm | - | 149 W/m² | - |
| 1777496604 | 27.78° C | 54% | 1006.9 hPa | 0 mm | - | 233 W/m² | - |
| 1777496300 | 27.78° C | 54% | 1007 hPa | 0 mm | - | 572 W/m² | - |
| 1777495996 | 28.33° C | 54% | 1006.9 hPa | 0 mm | - | 167 W/m² | - |
| 1777495692 | 27.78° C | 54% | 1007 hPa | 0 mm | - | 620 W/m² | - |
| 1777495389 | 27.22° C | 56% | 1007 hPa | 0 mm | - | 523 W/m² | - |
* Rain latest hour (hover to see other rain measurements)
** Current wind speed in m/s (hover to see current wind gust speed)